�������l�o���
Date,Time,MP-1(��Sv/h),MP-2(��Sv/h),MP-3(��Sv/h),MP-4(��Sv/h),MP-5(��Sv/h),MP-6(��Sv/h),MP-7(��Sv/h),MP-8(��Sv/h),����,����(m/s),���J
2018/02/01,00:00,0.833,1.379,0.875,1.580,1.107,0.467,0.840,0.822,�k,5.3,��
2018/02/01,00:10,0.830,1.376,0.875,1.579,1.107,0.466,0.839,0.821,�k�k��,5.7,��
2018/02/01,00:20,0.832,1.379,0.875,1.580,1.108,0.469,0.839,0.821,�k�k��,3.6,��
2018/02/01,00:30,0.833,1.378,0.875,1.577,1.109,0.469,0.838,0.821,�k��,4.5,��
2018/02/01,00:40,0.833,1.377,0.876,1.580,1.109,0.469,0.839,0.823,�k�k��,4.1,��
2018/02/01,00:50,0.831,1.378,0.872,1.577,1.108,0.468,0.840,0.821,�k�k��,4.2,��
2018/02/01,01:00,0.829,1.378,0.873,1.581,1.108,0.466,0.838,0.819,�k�k��,3.7,��
2018/02/01,01:10,0.830,1.379,0.871,1.577,1.107,0.468,0.840,0.821,�k�k��,5.4,��
2018/02/01,01:20,0.832,1.378,0.873,1.579,1.106,0.469,0.839,0.820,�k�k��,5.7,��
2018/02/01,01:30,0.830,1.381,0.874,1.579,1.107,0.467,0.840,0.821,�k�k��,5.0,��
2018/02/01,01:40,0.832,1.376,0.873,1.579,1.110,0.467,0.839,0.820,�k�k��,5.7,��
2018/02/01,01:50,0.831,1.380,0.872,1.580,1.105,0.466,0.838,0.819,�k�k��,6.4,��
2018/02/01,02:00,0.831,1.379,0.873,1.579,1.108,0.467,0.840,0.822,�k�k��,6.7,��
2018/02/01,02:10,0.831,1.379,0.874,1.578,1.108,0.467,0.840,0.820,�k,6.6,��
2018/02/01,02:20,0.831,1.378,0.872,1.578,1.108,0.468,0.838,0.821,�k�k��,6.8,��
2018/02/01,02:30,0.830,1.376,0.874,1.579,1.110,0.468,0.839,0.822,�k�k��,6.7,��
2018/02/01,02:40,0.831,1.378,0.874,1.580,1.106,0.467,0.840,0.820,�k�k��,7.8,��
2018/02/01,02:50,0.831,1.377,0.873,1.580,1.107,0.467,0.842,0.823,�k�k��,7.4,��
2018/02/01,03:00,0.831,1.378,0.874,1.580,1.106,0.467,0.840,0.821,�k�k��,7.1,��
2018/02/01,03:10,0.831,1.376,0.873,1.578,1.108,0.466,0.839,0.820,�k�k��,7.0,��
2018/02/01,03:20,0.831,1.376,0.875,1.581,1.109,0.468,0.841,0.821,�k�k��,5.2,��
2018/02/01,03:30,0.830,1.375,0.871,1.580,1.108,0.468,0.839,0.820,�k,3.0,��
2018/02/01,03:40,0.831,1.377,0.873,1.581,1.107,0.467,0.837,0.820,�k,4.3,��
2018/02/01,03:50,0.831,1.376,0.873,1.580,1.107,0.468,0.839,0.821,�k,5.5,��
2018/02/01,04:00,0.831,1.380,0.874,1.580,1.106,0.467,0.840,0.820,�k,6.6,��
2018/02/01,04:10,0.829,1.377,0.874,1.580,1.105,0.467,0.840,0.821,�k�k��,6.6,��
2018/02/01,04:20,0.830,1.378,0.874,1.581,1.105,0.467,0.839,0.822,�k�k��,7.2,��
2018/02/01,04:30,0.830,1.378,0.871,1.581,1.105,0.467,0.839,0.822,�k�k��,6.4,��
2018/02/01,04:40,0.830,1.378,0.872,1.583,1.106,0.466,0.838,0.820,�k,6.2,��
2018/02/01,04:50,0.828,1.378,0.873,1.577,1.106,0.467,0.841,0.819,�k,6.4,��
2018/02/01,05:00,0.832,1.377,0.874,1.580,1.104,0.468,0.839,0.819,�k,5.7,��
2018/02/01,05:10,0.831,1.378,0.873,1.580,1.107,0.466,0.838,0.819,�k,6.0,��
2018/02/01,05:20,0.829,1.375,0.875,1.579,1.105,0.467,0.839,0.820,�k,6.3,��
2018/02/01,05:30,0.831,1.377,0.872,1.582,1.107,0.466,0.840,0.822,�k�k��,6.7,��
2018/02/01,05:40,0.830,1.376,0.873,1.580,1.107,0.467,0.838,0.819,�k�k��,6.0,��
2018/02/01,05:50,0.830,1.375,0.873,1.583,1.107,0.466,0.839,0.820,�k�k��,5.7,��
2018/02/01,06:00,0.829,1.377,0.873,1.580,1.107,0.468,0.838,0.820,�k�k��,5.6,��
2018/02/01,06:10,0.828,1.377,0.874,1.581,1.104,0.468,0.839,0.821,�k,5.7,��
2018/02/01,06:20,0.829,1.376,0.873,1.583,1.104,0.466,0.839,0.821,�k,5.4,��
2018/02/01,06:30,0.828,1.376,0.873,1.580,1.107,0.467,0.839,0.821,�k,6.2,��
2018/02/01,06:40,0.828,1.380,0.872,1.581,1.106,0.467,0.839,0.822,�k,5.3,��
2018/02/01,06:50,0.829,1.374,0.871,1.581,1.105,0.466,0.839,0.820,�k,5.3,��
2018/02/01,07:00,0.828,1.377,0.872,1.583,1.105,0.467,0.839,0.821,�k,5.4,��
2018/02/01,07:10,0.829,1.376,0.870,1.579,1.106,0.467,0.839,0.819,�k,6.0,��
2018/02/01,07:20,0.829,1.377,0.871,1.581,1.106,0.467,0.839,0.820,�k,5.7,��
2018/02/01,07:30,0.827,1.375,0.871,1.582,1.107,0.466,0.839,0.820,�k,5.3,��
2018/02/01,07:40,0.830,1.377,0.870,1.581,1.106,0.465,0.840,0.821,�k,5.4,��
2018/02/01,07:50,0.827,1.377,0.873,1.581,1.106,0.467,0.838,0.819,�k�k��,6.0,��
2018/02/01,08:00,0.828,1.375,0.871,1.580,1.106,0.467,0.840,0.820,�k�k��,5.7,��
2018/02/01,08:10,0.828,1.375,0.871,1.581,1.103,0.466,0.837,0.821,�k�k��,5.6,��
2018/02/01,08:20,0.827,1.376,0.870,1.579,1.107,0.466,0.838,0.821,�k�k��,5.0,��
2018/02/01,08:30,0.830,1.375,0.872,1.579,1.105,0.465,0.838,0.818,�k,5.4,��
2018/02/01,08:40,0.828,1.374,0.870,1.581,1.106,0.466,0.840,0.821,�k�k��,4.6,��
2018/02/01,08:50,0.830,1.375,0.870,1.579,1.106,0.467,0.840,0.821,�k,4.5,��
2018/02/01,09:00,0.829,1.375,0.871,1.580,1.104,0.466,0.841,0.822,�k�k��,3.5,��
2018/02/01,09:10,0.828,1.374,0.871,1.582,1.108,0.467,0.842,0.820,�k,2.9,��
2018/02/01,09:20,0.830,1.378,0.871,1.583,1.105,0.468,0.840,0.823,�k�k��,3.4,��
2018/02/01,09:30,0.830,1.376,0.873,1.584,1.108,0.466,0.840,0.820,�k�k��,3.0,��
2018/02/01,09:40,0.830,1.379,0.873,1.581,1.106,0.467,0.841,0.821,�k,3.9,��
2018/02/01,09:50,0.832,1.379,0.871,1.581,1.105,0.467,0.841,0.819,�k,3.3,��
2018/02/01,10:00,0.831,1.379,0.871,1.583,1.110,0.466,0.838,0.820,�k,3.8,��
2018/02/01,10:10,0.831,1.378,0.871,1.582,1.108,0.466,0.839,0.820,�k�k��,3.2,��
2018/02/01,10:20,0.834,1.379,0.873,1.583,1.107,0.466,0.837,0.820,�k�k��,4.7,��
2018/02/01,10:30,0.837,1.380,0.874,1.583,1.110,0.469,0.835,0.821,�k�k��,3.9,��
2018/02/01,10:40,0.846,1.379,0.873,1.585,1.110,0.468,0.835,0.820,�k�k��,4.7,��
2018/02/01,10:50,0.848,1.381,0.872,1.581,1.111,0.467,0.834,0.821,�k�k��,4.9,��
2018/02/01,11:00,0.849,1.381,0.875,1.584,1.112,0.468,-,0.819,�k��,4.1,��
2018/02/01,11:10,0.849,1.380,0.872,1.583,1.110,0.468,-,0.821,�k�k��,4.5,��
2018/02/01,11:20,0.843,1.382,0.874,1.585,1.111,0.468,-,0.820,�k�k��,4.4,��
2018/02/01,11:30,0.837,1.382,0.875,1.585,1.112,0.468,-,0.821,�k�k��,4.5,��
2018/02/01,11:40,0.838,1.387,0.875,1.585,1.113,0.468,-,0.821,�k��,4.5,��
2018/02/01,11:50,0.839,1.386,0.874,1.585,1.115,0.469,-,0.821,�k��,4.7,��
2018/02/01,12:00,0.837,1.384,0.874,1.586,1.114,0.468,-,0.821,�k�k��,4.6,��
2018/02/01,12:10,0.838,1.387,0.875,1.585,1.114,0.470,-,0.821,�k�k��,4.9,��
2018/02/01,12:20,0.838,1.387,0.874,1.585,1.117,0.468,-,0.821,�k�k��,5.2,��
2018/02/01,12:30,0.839,1.389,0.876,1.584,1.115,0.469,-,0.821,�k�k��,5.0,��
2018/02/01,12:40,0.838,1.386,0.874,1.585,1.118,0.471,-,0.822,�k�k��,4.8,��
2018/02/01,12:50,0.841,1.388,0.878,1.585,1.117,0.469,-,0.822,�k�k��,4.4,��
2018/02/01,13:00,0.841,1.389,0.876,1.585,1.115,0.470,-,0.823,�k��,4.8,��
2018/02/01,13:10,0.841,1.387,0.875,1.587,1.116,0.468,-,0.821,�k�k��,4.9,��
2018/02/01,13:20,0.841,1.388,0.875,1.589,1.117,0.469,-,0.822,�k�k��,5.1,��
2018/02/01,13:30,0.842,1.391,0.876,1.587,1.117,0.469,-,0.822,�k��,5.2,��
2018/02/01,13:40,0.842,1.389,0.877,1.588,1.119,0.467,-,0.822,�k��,4.4,��
2018/02/01,13:50,0.841,1.389,0.878,1.587,1.116,0.467,-,0.823,�k��,4.6,��
2018/02/01,14:00,0.844,1.390,0.878,1.589,1.118,0.470,-,0.822,�k��,4.4,��
2018/02/01,14:10,0.841,1.390,0.875,1.588,1.121,0.470,-,0.821,�k��,4.6,��
2018/02/01,14:20,0.842,1.389,0.877,1.590,1.120,0.470,-,0.823,�k�k��,4.3,��
2018/02/01,14:30,0.843,1.391,0.877,1.589,1.119,0.469,-,0.822,�k��,4.4,��
2018/02/01,14:40,0.843,1.389,0.877,1.588,1.121,0.470,-,0.822,�k�k��,4.1,��
2018/02/01,14:50,0.841,1.392,0.878,1.592,1.121,0.470,-,0.821,�k��,4.3,��
2018/02/01,15:00,0.843,1.390,0.878,1.589,1.119,0.470,-,0.823,�k�k��,4.1,��
2018/02/01,15:10,0.841,1.389,0.880,1.590,1.121,0.470,-,0.822,�k�k��,3.7,��
2018/02/01,15:20,0.843,1.393,0.881,1.592,1.120,0.469,-,0.821,�k�k��,4.1,��
2018/02/01,15:30,0.842,1.393,0.880,1.590,1.120,0.471,-,0.822,�k,4.1,��
2018/02/01,15:40,0.840,1.396,0.877,1.592,1.121,0.469,-,0.820,�k�k��,4.6,��
2018/02/01,15:50,0.842,1.394,0.878,1.591,1.122,0.472,0.841,0.822,�k�k��,3.6,��
2018/02/01,16:00,0.842,1.394,0.878,1.590,1.122,0.471,0.841,0.822,�k�k��,4.2,��
2018/02/01,16:10,0.841,1.394,0.879,1.592,1.120,0.470,0.842,0.823,�k�k��,4.0,��
2018/02/01,16:20,0.843,1.396,0.879,1.588,1.121,0.470,0.842,0.822,�k�k��,4.1,��
2018/02/01,16:30,0.841,1.394,0.879,1.592,1.122,0.471,0.844,0.823,�k,4.1,��
2018/02/01,16:40,0.841,1.397,0.878,1.590,1.121,0.471,0.843,0.821,�k,4.3,��
2018/02/01,16:50,0.841,1.399,0.879,1.591,1.123,0.470,0.842,0.821,�k,4.0,��
2018/02/01,17:00,0.841,1.395,0.881,1.590,1.120,0.471,0.842,0.821,�k�k��,5.1,��
2018/02/01,17:10,0.840,1.398,0.878,1.591,1.122,0.469,0.842,0.821,�k�k��,3.8,��
2018/02/01,17:20,0.843,1.399,0.879,1.592,1.126,0.470,0.840,0.823,�k�k��,4.3,��
2018/02/01,17:30,0.841,1.397,0.880,1.590,1.122,0.471,0.842,0.821,�k�k��,4.0,��
2018/02/01,17:40,0.839,1.398,0.878,1.592,1.122,0.470,0.844,0.820,�k�k��,4.4,��
2018/02/01,17:50,0.839,1.397,0.879,1.590,1.121,0.470,0.840,0.820,�k�k��,3.9,��
2018/02/01,18:00,0.840,1.396,0.876,1.590,1.122,0.471,0.842,0.822,�k�k��,4.2,��
2018/02/01,18:10,0.841,1.397,0.878,1.589,1.123,0.470,0.841,0.821,�k��,4.5,��
2018/02/01,18:20,0.842,1.396,0.877,1.591,1.122,0.471,0.839,0.819,�k��,4.8,��
2018/02/01,18:30,0.841,1.396,0.877,1.590,1.123,0.470,0.842,0.821,�k��,4.1,��
2018/02/01,18:40,0.842,1.398,0.877,1.593,1.123,0.470,0.842,0.820,�k��,5.2,��
2018/02/01,18:50,0.840,1.395,0.877,1.591,1.122,0.471,0.843,0.822,�k�k��,5.5,��
2018/02/01,19:00,0.843,1.395,0.880,1.593,1.120,0.468,0.841,0.819,�k�k��,5.3,��
2018/02/01,19:10,0.840,1.399,0.879,1.589,1.124,0.470,0.840,0.821,�k��,5.6,��
2018/02/01,19:20,0.841,1.397,0.876,1.592,1.122,0.470,0.841,0.821,�k��,5.7,��
2018/02/01,19:30,0.844,1.395,0.877,1.592,1.122,0.470,0.843,0.822,�k�k��,6.7,��
2018/02/01,19:40,0.841,1.396,0.879,1.594,1.119,0.472,0.842,0.820,�k�k��,7.5,��
2018/02/01,19:50,0.840,1.397,0.879,1.593,1.121,0.469,0.841,0.822,�k�k��,6.9,��
2018/02/01,20:00,0.843,1.397,0.877,1.591,1.118,0.470,0.841,0.821,�k�k��,6.4,��
2018/02/01,20:10,0.841,1.396,0.876,1.593,1.120,0.470,0.841,0.821,�k�k��,6.9,��
2018/02/01,20:20,0.841,1.396,0.878,1.591,1.121,0.469,0.841,0.821,�k�k��,7.5,��
2018/02/01,20:30,0.843,1.396,0.879,1.591,1.119,0.469,0.842,0.821,�k�k��,6.4,��
2018/02/01,20:40,0.841,1.397,0.878,1.590,1.122,0.469,0.841,0.822,�k�k��,6.1,��
2018/02/01,20:50,0.843,1.400,0.879,1.591,1.124,0.469,0.841,0.820,�k�k��,6.9,��
2018/02/01,21:00,0.841,1.396,0.877,1.591,1.123,0.469,0.842,0.822,�k�k��,6.4,��
2018/02/01,21:10,0.842,1.396,0.878,1.596,1.121,0.469,0.841,0.821,�k�k��,7.3,��
2018/02/01,21:20,0.843,1.397,0.880,1.594,1.125,0.471,0.843,0.821,�k�k��,6.9,��
2018/02/01,21:30,0.842,1.398,0.880,1.592,1.123,0.469,0.842,0.820,�k�k��,7.4,��
2018/02/01,21:40,0.843,1.397,0.877,1.592,1.122,0.471,0.844,0.822,�k�k��,7.4,��
2018/02/01,21:50,0.842,1.398,0.879,1.590,1.122,0.470,0.841,0.820,�k�k��,7.0,��
2018/02/01,22:00,0.840,1.396,0.878,1.594,1.123,0.468,0.841,0.819,�k�k��,6.9,��
2018/02/01,22:10,0.841,1.396,0.878,1.592,1.123,0.470,0.842,0.821,�k�k��,7.7,��
2018/02/01,22:20,0.843,1.398,0.878,1.596,1.122,0.471,0.843,0.822,�k�k��,7.7,��
2018/02/01,22:30,0.842,1.397,0.878,1.594,1.123,0.469,0.842,0.821,�k�k��,7.6,��
2018/02/01,22:40,0.841,1.397,0.878,1.594,1.121,0.470,0.843,0.820,�k�k��,8.0,��
2018/02/01,22:50,0.843,1.397,0.877,1.596,1.121,0.469,0.843,0.821,�k�k��,7.3,��
2018/02/01,23:00,0.842,1.398,0.880,1.596,1.122,0.469,0.843,0.823,�k�k��,6.4,��
2018/02/01,23:10,0.841,1.398,0.876,1.594,1.121,0.469,0.844,0.821,�k�k��,7.4,��
2018/02/01,23:20,0.842,1.399,0.876,1.592,1.122,0.468,0.843,0.822,�k�k��,6.6,��
2018/02/01,23:30,0.842,1.394,0.877,1.595,1.119,0.469,0.843,0.823,�k�k��,6.7,��
2018/02/01,23:40,0.842,1.399,0.877,1.594,1.122,0.470,0.841,0.823,�k�k��,6.6,��
2018/02/01,23:50,0.844,1.397,0.877,1.592,1.122,0.469,0.843,0.821,�k�k��,6.3,��
